Regional Weather Roundup
Issued by NWS Cleveland, OH

Home | Current Version | Previous Version | Text Only | Print | Product List | Glossary Off
Versions: 1 2 3 4 5 6 7 8 9 10 11 12 13 14 15 16 17 18 19 20 21 22 23 24 25 26 27 28 29 30 31 32 33 34 35 36 37 38 39 40 41 42 43 44 45 46 47 48 49 50

000
ASUS41 KCLE 261312
RWRCLE
OHIO REGIONAL WEATHER ROUNDUP
NATIONAL WEATHER SERVICE WILMINGTON, OH
900 AM EDT THU APR 26 2018

NOTE: "FAIR" INDICATES FEW OR NO CLOUDS BELOW 12,000 FEET WITH NO
SIGNIFICANT WEATHER AND/OR OBSTRUCTIONS TO VISIBILITY.

OHZ001>008-015>018-024>027-034-035-043-044-261400-
   NORTHWEST OHIO

CITY           SKY/WX    TMP DP  RH WIND       PRES   REMARKS
DEFIANCE       FAIR      46  40  79 E6        29.96R
FINDLAY        PTSUNNY   45  36  70 SE8       29.94S
TOLEDO EXPRESS FAIR      44  41  89 NW3       29.96R
TOLEDO EXEC    FAIR      44  39  82 CALM      29.97R
LIMA           PTSUNNY   46  39  76 E8        29.94R
$$

OHZ009>014-019>023-028>033-038-089-261400-
   NORTHEAST OHIO

CITY           SKY/WX    TMP DP  RH WIND       PRES   REMARKS
CLE-HOPKINS    FAIR      43  37  79 W3        29.98R
CLE-LAKEFRONT  FAIR      42  36  79 VRB3      29.95S
CUY CO. ARPT   SUNNY     45  37  76 NW7       29.96R
LORAIN-ELYRIA  FAIR      42  32  67 VRB5      29.96R
ASHTABULA      FAIR      42  37  82 NW7       29.95R
AKRON-CANTON   FAIR      42  35  76 CALM      29.95R
WOOSTER        FAIR      41  37  86 CALM      29.95S
MANSFIELD      FAIR      41  37  86 E8        29.94R
YOUNGSTOWN     FAIR      42  34  73 N8        29.93S
$$

OHZ042-051>053-060>062-070>072-077>081-261400-
  SOUTHWEST OHIO

CITY           SKY/WX    TMP DP  RH WIND       PRES   REMARKS
CINC-COVINGTON FAIR      48  34  58 N5        29.91R
CINC-LUNKEN    FAIR      50  38  63 NE3       29.92R
HAMILTON       FAIR      47  36  65 N3        29.93R
DAYTON         FAIR      46  43  89 E9        29.92S
WRIGHT-PAT AFB PTSUNNY   48  42  79 E10       29.92R
DAYTON GENERAL FAIR      48  42  80 E8        29.90S
WILMINGTON     FAIR      48  44  86 E6        29.90R
$$

OHZ036-037-039>041-045>050-054>059-063>069-073>076-082>088-261400-
  CENTRAL AND SOUTHEAST OHIO

CITY           SKY/WX    TMP DP  RH WIND       PRES   REMARKS
COLUMBUS       PTSUNNY   47  38  71 E8        29.93S
OSU AIRPORT    FAIR      46  38  73 E9        29.93R
BOLTON FIELD   SUNNY     46  37  71 E8        29.94R
RICKENBACK AFB FAIR      46  42  86 E9        29.93S
NEWARK         CLOUDY    45  39  79 E3        29.94R
MARION         PTSUNNY   43  37  79 SE7       29.95R
LANCASTER      FAIR      48  42  80 E9        29.94R
ZANESVILLE     FAIR      44  39  82 E6        29.95R
NEW PHILLY     FAIR      41  37  86 CALM      29.96F
$$



USA.gov is the U.S. government's official web portal to all federal, state and local government web resources and services.